| time (UTC) | temp F | wind direction | speed knots | gust knots | rain 1hr in | rain 24hr in | rain mn in | humidity % | barometer mb |
| 20260504000043 | 78 | 0 | 0.9 | 7.8 | 0.00 | 0.00 | 0.00 | 22 | 1014.9 |
| 20260503234535 | 79 | 112 | 0.9 | 7.0 | 0.00 | 0.00 | 0.00 | 22 | 1015.1 |
| 20260503233031 | 80 | 6 | 0.9 | 7.8 | 0.00 | 0.00 | 0.00 | 22 | 1015.1 |
| 20260503231533 | 80 | 3 | 0.9 | 9.6 | 0.00 | 0.00 | 0.00 | 21 | 1015.3 |
| 20260503230037 | 80 | 33 | 1.7 | 10.4 | 0.00 | 0.00 | 0.00 | 20 | 1015.3 |
| 20260503224539 | 81 | 290 | 0.0 | 7.0 | 0.00 | 0.00 | 0.00 | 20 | 1015.4 |
| 20260503223036 | 82 | 58 | 0.9 | 7.8 | 0.00 | 0.00 | 0.00 | 19 | 1015.5 |
| 20260503221542 | 82 | 17 | 1.7 | 7.8 | 0.00 | 0.00 | 0.00 | 18 | 1015.4 |
| 20260503220035 | 83 | 12 | 1.7 | 8.7 | 0.00 | 0.00 | 0.00 | 16 | 1015.8 |
| 20260503214534 | 83 | 63 | 1.7 | 7.8 | 0.00 | 0.00 | 0.00 | 17 | 1015.8 |
| 20260503213035 | 84 | 84 | 0.9 | 2.6 | 0.00 | 0.00 | 0.00 | 19 | 1016.1 |
| 20260503211532 | 84 | 83 | 0.9 | 8.7 | 0.00 | 0.00 | 0.00 | 17 | 1016.2 |
| 20260503210048 | 84 | 98 | 0.0 | 7.8 | 0.00 | 0.00 | 0.00 | 17 | 1016.4 |
| 20260503204541 | 84 | 79 | 0.9 | 5.2 | 0.00 | 0.00 | 0.00 | 19 | 1016.7 |
| 20260503203036 | 84 | 0 | 0.0 | 4.3 | 0.00 | 0.00 | 0.00 | 18 | 1017.1 |
| 20260503201536 | 84 | 82 | 0.0 | 6.1 | 0.00 | 0.00 | 0.00 | 16 | 1017.3 |
| 20260503200043 | 85 | 98 | 0.0 | 3.5 | 0.00 | 0.00 | 0.00 | 20 | 1017.6 |
| 20260503194533 | 84 | 342 | 0.9 | 5.2 | 0.00 | 0.00 | 0.00 | 18 | 1017.8 |
| 20260503193038 | 84 | 228 | 0.0 | 5.2 | 0.00 | 0.00 | 0.00 | 19 | 1018.0 |
| 20260503191535 | 84 | 0 | 0.0 | 6.1 | 0.00 | 0.00 | 0.00 | 26 | 1018.3 |
| 20260503190043 | 84 | 309 | 0.9 | 4.3 | 0.00 | 0.00 | 0.00 | 21 | 1018.6 |
| 20260503184535 | 84 | 77 | 0.0 | 2.6 | 0.00 | 0.00 | 0.00 | 26 | 1018.8 |
| 20260503183033 | 83 | 0 | 0.9 | 6.1 | 0.00 | 0.00 | 0.00 | 23 | 1019.1 |
| 20260503181537 | 83 | 89 | 0.0 | 6.1 | 0.00 | 0.00 | 0.00 | 25 | 1019.4 |
| 20260503180033 | 82 | 118 | 0.9 | 3.5 | 0.00 | 0.00 | 0.00 | 26 | 1019.6 |
| 20260503174534 | 82 | 75 | 1.7 | 4.3 | 0.00 | 0.00 | 0.00 | 26 | 1019.8 |
| 20260503173049 | 81 | 27 | 0.9 | 2.6 | 0.00 | 0.00 | 0.00 | 28 | 1020.0 |
| 20260503171531 | 80 | 94 | 0.9 | 3.5 | 0.00 | 0.00 | 0.00 | 31 | 1020.2 |
| 20260503081549 | 58 | 0 | 0.0 | 0.9 | 0.00 | 0.00 | 0.00 | 52 | 1019.5 |
| 20260503071542 | 58 | 0 | 0.0 | 0.0 | 0.00 | 0.00 | 0.00 | 53 | 1019.8 |
| 20260503054539 | 60 | 91 | 0.0 | 1.7 | 0.00 | 0.00 | 0.00 | 49 | 1019.5 |
| 20260503053031 | 60 | 91 | 0.0 | 1.7 | 0.00 | 0.00 | 0.00 | 50 | 1019.5 |
| 20260503051535 | 60 | 91 | 0.0 | 1.7 | 0.00 | 0.00 | 0.00 | 51 | 1019.4 |
| 20260503050036 | 60 | 94 | 0.0 | 1.7 | 0.00 | 0.00 | 0.00 | 53 | 1019.3 |
| 20260503044541 | 60 | 0 | 0.0 | 0.0 | 0.00 | 0.00 | 0.00 | 53 | 1019.3 |
| 20260503043034 | 60 | 0 | 0.0 | 0.0 | 0.00 | 0.00 | 0.00 | 54 | 1019.3 |
| 20260503041541 | 60 | 0 | 0.0 | 0.9 | 0.00 | 0.00 | 0.00 | 55 | 1019.3 |
| 20260503040034 | 60 | 0 | 0.0 | 0.0 | 0.00 | 0.00 | 0.00 | 56 | 1019.3 |
| 20260503034534 | 60 | 0 | 0.0 | 0.9 | 0.00 | 0.00 | 0.00 | 57 | 1019.3 |
| 20260503033032 | 60 | 0 | 0.0 | 0.0 | 0.00 | 0.00 | 0.00 | 59 | 1019.3 |
| 20260503031541 | 60 | 0 | 0.0 | 0.0 | 0.00 | 0.00 | 0.00 | 59 | 1019.2 |
| 20260503030039 | 60 | 0 | 0.0 | 0.0 | 0.00 | 0.00 | 0.00 | 58 | 1019.0 |
| 20260503024538 | 61 | 0 | 0.0 | 0.0 | 0.00 | 0.00 | 0.00 | 56 | 1018.9 |
| 20260503023038 | 61 | 0 | 0.0 | 0.0 | 0.00 | 0.00 | 0.00 | 55 | 1018.8 |
| 20260503021539 | 62 | 0 | 0.0 | 0.0 | 0.00 | 0.00 | 0.00 | 54 | 1018.6 |
| 20260503020035 | 63 | 0 | 0.0 | 0.0 | 0.00 | 0.00 | 0.00 | 52 | 1018.5 |
| 20260503014538 | 64 | 0 | 0.0 | 0.0 | 0.00 | 0.00 | 0.00 | 49 | 1018.5 |
| 20260503013037 | 65 | 0 | 0.0 | 0.0 | 0.00 | 0.00 | 0.00 | 44 | 1018.4 |
| 20260503011533 | 66 | 0 | 0.0 | 0.0 | 0.00 | 0.00 | 0.00 | 42 | 1018.3 |
| 20260503010039 | 68 | 0 | 0.0 | 0.0 | 0.00 | 0.00 | 0.00 | 40 | 1018.3 |
| 20260503004600 | 69 | 0 | 0.0 | 0.0 | 0.00 | 0.00 | 0.00 | 37 | 1018.2 |
| 20260503003032 | 71 | 0 | 0.0 | 0.0 | 0.00 | 0.00 | 0.00 | 34 | 1018.1 |
| 20260503001534 | 72 | 0 | 0.0 | 0.0 | 0.00 | 0.00 | 0.00 | 33 | 1018.1 |